Location: Saratoga Springs
(43.0831°N, 73.7850°W)
Time: 17:26:21
(UTC-04:00)

A-11 Canister half - Visible Passes

Search period start: 12 April 2024 00:00
Search period end: 22 April 2024 00:00
Orbit: 1526 x 1682 km, 47.3° (Epoch: 11 April)

Date Brightness Start Highest point End Pass type
(mag) Time Alt. Az. Time Alt. Az. Time Alt. Az.
17 Apr 10.8 05:32:58 10° S 05:40:42 26° SE 05:48:32 10° ENE visible
18 Apr 10.8 05:11:31 10° S 05:19:01 25° SE 05:26:35 10° ENE visible
19 Apr 10.8 04:50:06 10° S 04:57:20 23° SE 05:04:39 10° E visible
20 Apr 10.8 04:28:43 10° S 04:35:38 22° SE 04:42:40 10° E visible
21 Apr 10.8 04:07:22 10° SSE 04:13:58 20° SE 04:20:40 10° E visible
